Orbital Elements at Epoch 2459200.5 (2020-Dec-17.0) TDB
Reference: JPL 17 (heliocentric ecliptic J2000)
Element | Value | Uncertainty (1-sigma) | Units |
e | .08453034342788453 | 8.3077e-08 | |
a | 3.375057061737077 | 4.7048e-08 | au |
q | 3.089762329219735 | 2.876e-07 | au |
i | 7.452279080422695 | 1.1887e-05 | deg |
node | 320.4246068612347 | 4.27e-05 | deg |
peri | 230.941320123464 | 7.1784e-05 | deg |
M | 8.669927922475747 | 5.4769e-05 | deg |
tp | 2459145.957744586088 (2020-Oct-23.45774459) | 0.00034462 | TDB |
period | 2264.749156461444 6.20 | 4.7355e-05 1.297e-07 | d yr |
n | .1589580015839289 | 3.3238e-09 | deg/d |
Q | 3.660351794254419 | 5.1025e-08 | au |
|
| | Orbit Determination Parameters
Additional Information
|